OBJECT BQ, 60530

Orbit data source: Space-Track

You're viewing an uncataloged RSO

Recently launched and/or uncataloged RSOs may have evolving metadata. Metadata may include the following, but is not limited to: Owner, Manufacturer, Bus, Motor, and Mission.

OBJECT BQ, 60530 is a satellite in SSO that was launched on Fri, 16 Aug 2024 UTC via an FALCON 9 launch vehicle from the Air Force Western Test Range (AFWTR). Unknown objects in Earth's orbit typically refer to objects detected orbiting the Earth but have not yet been identified or cataloged. These objects could be anything from previously untracked satellites, spent rocket stages, debris from satellite collisions, or even natural meteoroids temporarily captured by Earth's gravity.

Loading next visibility...
Identifier
60530, 2024-149BQ
Orbit
SSO
Country
Flag of TBDTBD
Related business
Manufacturer
NANAV/PYRAS
Mission
Operational Civil Imaging
Bus & Motor
CUBESAT 3U, Unknown motor
Mass
5 kg wet, 5 kg dry
Launch date (UTC)
2024-08-16 (2 years ago)
Launch vehicle
FALCON 9
Launch site
Air Force Western Test Range (AFWTR)
Object type
Unknown
Shape & HBR
Box, 0.2 m
Radar Cross Section
0.080 m², Medium (>0.1 m² and < 1m²)

Expand to show TLE details & history
Last TLE update: 10 hours ago

TLE from 10 hours ago
0 OBJECT BQ
1 60530U 24149BQ  26265.12106215  .00000609  00000-0  58274-4 0  9998
2 60530  97.6706 337.9550 0001395  77.9511 282.1867 14.96706782114450
Epoch: 2026-09-22T02:54Z
TLE epoch observation values (Epoch: 2026-09-22T02:54:19.769Z)
Latitude
-0.00004°
Longitude
-66.61845°
Altitude
579.926 km
Speed
7.571 km/s
True Right ascension
22h 31m 49s
True Declination
0° 00' 00"
Sunlit
Object was in full shadow at epoch
Visualization orbit readout
Latitude
Unknown
Longitude
Unknown
Altitude
Unknown
Speed
Unknown
Apparent Right ascension
Unknown
Apparent Declination
Unknown
Sunlit
N/A
Visualization observer readout
Local Sidereal Time
06:04:01
Azimuth
Unknown
Elevation
Unknown
Doppler factor
Unknown
Orbital elements
Apogee altitude
575.058 km
Perigee altitude
573.119 km
Semi-major axis
6,952.225 km
Eccentricity
0.00014
Inclination
97.6706°
RAAN
337.955°
Arg. of periapsis
77.9511°
True anomaly
282.17107°
Mean anomaly
282.1867°
Eccentric anomaly
282.17889°
Mean motion
3.74419 °/min
Orbital period
96.15 mins
BSTAR
0.000058274
Loading maneuver chart data...
Computing Atmospheric mass density...

Documentation

Showing up to 5 results
|